Location: Unspecified
(40.4557°N, 0.0000°E)
Time: 04:51:10
(UTC+00:00)

CZ-4B DEB - Visible Passes

Search period start: 05 April 2026 00:00
Search period end: 15 April 2026 00:00
Orbit: 616 x 760 km, 98.7° (Epoch: 28 March)

Date Brightness Start Highest point End Pass type
(mag) Time Alt. Az. Time Alt. Az. Time Alt. Az.
5 Apr ? 02:49:10 10° N 02:51:10 24° NNW 02:51:10 24° NNW visible
6 Apr ? 01:49:46 10° NNE 01:51:16 20° NE 01:51:16 20° NE visible
6 Apr ? 03:28:09 10° NNW 03:29:51 16° NW 03:29:51 16° NW visible
7 Apr ? 02:27:41 10° N 02:29:56 29° N 02:29:56 29° N visible
8 Apr ? 01:28:50 10° NE 01:30:01 16° NE 01:30:01 16° NE visible
8 Apr ? 03:06:11 10° N 03:08:36 24° NW 03:08:36 24° NW visible
9 Apr ? 02:06:21 10° NNE 02:08:41 30° NNE 02:08:41 30° NNE visible
9 Apr ? 03:45:42 10° NW 03:47:15 13° NW 03:47:15 13° NW visible
10 Apr ? 01:08:17 10° NE 01:08:44 12° ENE 01:08:44 12° ENE visible
10 Apr ? 02:44:29 10° N 02:47:19 33° NNW 02:47:19 33° NNW visible
11 Apr ? 01:45:11 10° NNE 01:47:22 25° NE 01:47:22 25° NE visible
11 Apr ? 03:23:15 10° NNW 03:25:57 20° NW 03:25:57 20° NW visible
12 Apr ? 02:22:58 10° NNE 02:26:00 41° N 02:26:00 41° N visible
13 Apr ? 01:24:15 10° NE 01:26:02 19° ENE 01:26:02 19° ENE visible
13 Apr ? 03:01:19 10° N 03:04:36 31° NW 03:04:36 31° NW visible
14 Apr ? 02:01:36 10° NNE 02:04:38 38° NE 02:04:38 38° NE visible
14 Apr ? 03:40:28 10° NNW 03:43:12 15° WNW 03:43:12 15° WNW visible
